owner,sensor,date,latitude,longitude,sea_water_turbidity,qcFlag 
SCCF RECON,ioos:station:SCCF:56:1,2017-01-01T00:00:00Z,26.4645,-82.1044,41.85,1111122 
SCCF RECON,ioos:station:SCCF:56:1,2017-01-01T01:00:00Z,26.4645,-82.1044,36.26,1111122 
SCCF RECON,ioos:station:SCCF:56:1,2017-01-01T02:00:00Z,26.4645,-82.1044,37.71,1111122 
SCCF RECON,ioos:station:SCCF:56:1,2017-01-01T03:00:00Z,26.4645,-82.1044,25.11,1111122 
SCCF RECON,ioos:station:SCCF:56:1,2017-01-01T04:00:00Z,26.4645,-82.1044,29.19,1111122 
SCCF RECON,ioos:station:SCCF:56:1,2017-01-01T05:00:00Z,26.4645,-82.1044,24.93,1111122 
SCCF RECON,ioos:station:SCCF:56:1,2017-01-01T06:00:00Z,26.4645,-82.1044,25.2,1111122 
SCCF RECON,ioos:station:SCCF:56:1,2017-01-01T07:00:00Z,26.4645,-82.1044,24.27,1111122 
SCCF RECON,ioos:station:SCCF:56:1,2017-01-01T08:00:00Z,26.4645,-82.1044,23.52,1111122 
SCCF RECON,ioos:station:SCCF:56:1,2017-01-01T09:00:00Z,26.4645,-82.1044,22.14,1111122 
SCCF RECON,ioos:station:SCCF:56:1,2017-01-01T10:00:00Z,26.4645,-82.1044,21.95,1111122 
SCCF RECON,ioos:station:SCCF:56:1,2017-01-01T11:00:00Z,26.4645,-82.1044,22.6,1111122 
SCCF RECON,ioos:station:SCCF:56:1,2017-01-01T12:00:00Z,26.4645,-82.1044,22.95,1111122 
SCCF RECON,ioos:station:SCCF:56:1,2017-01-01T13:00:00Z,26.4645,-82.1044,23.49,1111122 
SCCF RECON,ioos:station:SCCF:56:1,2017-01-01T14:00:00Z,26.4645,-82.1044,24.36,1111122 
SCCF RECON,ioos:station:SCCF:56:1,2017-01-01T15:00:00Z,26.4645,-82.1044,23.89,1111122 
SCCF RECON,ioos:station:SCCF:56:1,2017-01-01T16:00:00Z,26.4645,-82.1044,23.07,1111122 
SCCF RECON,ioos:station:SCCF:56:1,2017-01-01T17:00:00Z,26.4645,-82.1044,23.12,1111122 
SCCF RECON,ioos:station:SCCF:56:1,2017-01-01T18:00:00Z,26.4645,-82.1044,23.0,1111122 
SCCF RECON,ioos:station:SCCF:56:1,2017-01-01T19:00:00Z,26.4645,-82.1044,23.43,1111122 
SCCF RECON,ioos:station:SCCF:56:1,2017-01-01T20:00:00Z,26.4645,-82.1044,22.7,1111122 
SCCF RECON,ioos:station:SCCF:56:1,2017-01-01T21:00:00Z,26.4645,-82.1044,22.24,1111122 
SCCF RECON,ioos:station:SCCF:56:1,2017-01-01T22:00:00Z,26.4645,-82.1044,27.62,1111122 
SCCF RECON,ioos:station:SCCF:56:1,2017-01-01T23:00:00Z,26.4645,-82.1044,24.67,1111122 
SCCF RECON,ioos:station:SCCF:56:1,2017-01-02T00:00:00Z,26.4645,-82.1044,24.94,1111122 
SCCF RECON,ioos:station:SCCF:56:1,2017-01-02T01:00:00Z,26.4645,-82.1044,24.92,1111122 
SCCF RECON,ioos:station:SCCF:56:1,2017-01-02T02:00:00Z,26.4645,-82.1044,27.26,1111122 
SCCF RECON,ioos:station:SCCF:56:1,2017-01-02T03:00:00Z,26.4645,-82.1044,27.69,1111122 
SCCF RECON,ioos:station:SCCF:56:1,2017-01-02T04:00:00Z,26.4645,-82.1044,27.28,1111122 
SCCF RECON,ioos:station:SCCF:56:1,2017-01-02T05:00:00Z,26.4645,-82.1044,26.09,1111122 
SCCF RECON,ioos:station:SCCF:56:1,2017-01-02T06:00:00Z,26.4645,-82.1044,24.66,1111122 
SCCF RECON,ioos:station:SCCF:56:1,2017-01-02T07:00:00Z,26.4645,-82.1044,28.88,1111122 
SCCF RECON,ioos:station:SCCF:56:1,2017-01-02T08:00:00Z,26.4645,-82.1044,40.37,1111122 
SCCF RECON,ioos:station:SCCF:56:1,2017-01-02T09:00:00Z,26.4645,-82.1044,26.73,1111122 
SCCF RECON,ioos:station:SCCF:56:1,2017-01-02T10:00:00Z,26.4645,-82.1044,26.76,1111122 
SCCF RECON,ioos:station:SCCF:56:1,2017-01-02T11:00:00Z,26.4645,-82.1044,26.71,1111122 
SCCF RECON,ioos:station:SCCF:56:1,2017-01-02T12:00:00Z,26.4645,-82.1044,25.77,1111122 
SCCF RECON,ioos:station:SCCF:56:1,2017-01-02T13:00:00Z,26.4645,-82.1044,26.56,1111122 
SCCF RECON,ioos:station:SCCF:56:1,2017-01-02T14:00:00Z,26.4645,-82.1044,26.1,1111122 
SCCF RECON,ioos:station:SCCF:56:1,2017-01-02T15:00:00Z,26.4645,-82.1044,14.11,1111122 
SCCF RECON,ioos:station:SCCF:56:1,2017-01-02T16:00:00Z,26.4645,-82.1044,8.49,1111122 
SCCF RECON,ioos:station:SCCF:56:1,2017-01-02T17:00:00Z,26.4645,-82.1044,8.15,1111122 
SCCF RECON,ioos:station:SCCF:56:1,2017-01-02T18:00:00Z,26.4645,-82.1044,7.86,1111122 
SCCF RECON,ioos:station:SCCF:56:1,2017-01-02T19:00:00Z,26.4645,-82.1044,8.06,1111122 
SCCF RECON,ioos:station:SCCF:56:1,2017-01-02T20:00:00Z,26.4645,-82.1044,22.12,1111122 
SCCF RECON,ioos:station:SCCF:56:1,2017-01-02T21:00:00Z,26.4645,-82.1044,6.68,1111122 
SCCF RECON,ioos:station:SCCF:56:1,2017-01-02T22:00:00Z,26.4645,-82.1044,7.39,1111122 
SCCF RECON,ioos:station:SCCF:56:1,2017-01-02T23:00:00Z,26.4645,-82.1044,7.47,1111122 
SCCF RECON,ioos:station:SCCF:56:1,2017-01-03T00:00:00Z,26.4645,-82.1044,7.64,1111122 
SCCF RECON,ioos:station:SCCF:56:1,2017-01-03T01:00:00Z,26.4645,-82.1044,8.26,1111122 
SCCF RECON,ioos:station:SCCF:56:1,2017-01-03T02:00:00Z,26.4645,-82.1044,7.85,1111122 
SCCF RECON,ioos:station:SCCF:56:1,2017-01-03T03:00:00Z,26.4645,-82.1044,7.7,1111122 
SCCF RECON,ioos:station:SCCF:56:1,2017-01-03T04:00:00Z,26.4645,-82.1044,9.08,1111122 
SCCF RECON,ioos:station:SCCF:56:1,2017-01-03T05:00:00Z,26.4645,-82.1044,7.25,1111122 
SCCF RECON,ioos:station:SCCF:56:1,2017-01-03T06:00:00Z,26.4645,-82.1044,8.85,1111122 
SCCF RECON,ioos:station:SCCF:56:1,2017-01-03T07:00:00Z,26.4645,-82.1044,8.41,1111122 
SCCF RECON,ioos:station:SCCF:56:1,2017-01-03T08:00:00Z,26.4645,-82.1044,8.62,1111122 
SCCF RECON,ioos:station:SCCF:56:1,2017-01-03T09:00:00Z,26.4645,-82.1044,8.28,1111122 
SCCF RECON,ioos:station:SCCF:56:1,2017-01-03T10:00:00Z,26.4645,-82.1044,8.72,1111122 
SCCF RECON,ioos:station:SCCF:56:1,2017-01-03T11:00:00Z,26.4645,-82.1044,7.67,1111122 
SCCF RECON,ioos:station:SCCF:56:1,2017-01-03T12:00:00Z,26.4645,-82.1044,7.76,1111122 
SCCF RECON,ioos:station:SCCF:56:1,2017-01-03T13:00:00Z,26.4645,-82.1044,7.78,1111122 
SCCF RECON,ioos:station:SCCF:56:1,2017-01-03T14:00:00Z,26.4645,-82.1044,7.97,1111122 
SCCF RECON,ioos:station:SCCF:56:1,2017-01-03T15:00:00Z,26.4645,-82.1044,8.13,1111122 
SCCF RECON,ioos:station:SCCF:56:1,2017-01-03T16:00:00Z,26.4645,-82.1044,7.92,1111122 
SCCF RECON,ioos:station:SCCF:56:1,2017-01-03T17:00:00Z,26.4645,-82.1044,8.25,1111122 
SCCF RECON,ioos:station:SCCF:56:1,2017-01-03T18:00:00Z,26.4645,-82.1044,8.0,1111122 
SCCF RECON,ioos:station:SCCF:56:1,2017-01-03T19:00:00Z,26.4645,-82.1044,7.8,1111122 
SCCF RECON,ioos:station:SCCF:56:1,2017-01-03T20:00:00Z,26.4645,-82.1044,7.91,1111122 
SCCF RECON,ioos:station:SCCF:56:1,2017-01-03T21:00:00Z,26.4645,-82.1044,7.81,1111122 
SCCF RECON,ioos:station:SCCF:56:1,2017-01-03T22:00:00Z,26.4645,-82.1044,8.0,1111122 
SCCF RECON,ioos:station:SCCF:56:1,2017-01-03T23:00:00Z,26.4645,-82.1044,7.32,1111122 
SCCF RECON,ioos:station:SCCF:56:1,2017-01-04T00:00:00Z,26.4645,-82.1044,9.72,1111122 
SCCF RECON,ioos:station:SCCF:56:1,2017-01-04T01:00:00Z,26.4645,-82.1044,7.62,1111122 
SCCF RECON,ioos:station:SCCF:56:1,2017-01-04T02:00:00Z,26.4645,-82.1044,7.93,1111122 
SCCF RECON,ioos:station:SCCF:56:1,2017-01-04T03:00:00Z,26.4645,-82.1044,7.93,1111122 
SCCF RECON,ioos:station:SCCF:56:1,2017-01-04T04:00:00Z,26.4645,-82.1044,9.37,1111122 
SCCF RECON,ioos:station:SCCF:56:1,2017-01-04T05:00:00Z,26.4645,-82.1044,10.1,1111122 
SCCF RECON,ioos:station:SCCF:56:1,2017-01-04T06:00:00Z,26.4645,-82.1044,11.98,1111122 
SCCF RECON,ioos:station:SCCF:56:1,2017-01-04T07:00:00Z,26.4645,-82.1044,8.29,1111122 
SCCF RECON,ioos:station:SCCF:56:1,2017-01-04T08:00:00Z,26.4645,-82.1044,19.29,1111122 
SCCF RECON,ioos:station:SCCF:56:1,2017-01-04T09:00:00Z,26.4645,-82.1044,7.83,1111122 
SCCF RECON,ioos:station:SCCF:56:1,2017-01-04T10:00:00Z,26.4645,-82.1044,9.67,1111122 
SCCF RECON,ioos:station:SCCF:56:1,2017-01-04T11:00:00Z,26.4645,-82.1044,8.36,1111122 
SCCF RECON,ioos:station:SCCF:56:1,2017-01-04T12:00:00Z,26.4645,-82.1044,7.06,1111122 
SCCF RECON,ioos:station:SCCF:56:1,2017-01-04T13:00:00Z,26.4645,-82.1044,7.54,1111122 
SCCF RECON,ioos:station:SCCF:56:1,2017-01-04T14:00:00Z,26.4645,-82.1044,7.38,1111122 
SCCF RECON,ioos:station:SCCF:56:1,2017-01-04T15:00:00Z,26.4645,-82.1044,6.93,1111122 
SCCF RECON,ioos:station:SCCF:56:1,2017-01-04T16:00:00Z,26.4645,-82.1044,6.75,1111122 
SCCF RECON,ioos:station:SCCF:56:1,2017-01-04T17:00:00Z,26.4645,-82.1044,6.75,1111122 
SCCF RECON,ioos:station:SCCF:56:1,2017-01-04T18:00:00Z,26.4645,-82.1044,14.33,1111122 
SCCF RECON,ioos:station:SCCF:56:1,2017-01-04T19:00:00Z,26.4645,-82.1044,7.67,1111122 
SCCF RECON,ioos:station:SCCF:56:1,2017-01-04T20:00:00Z,26.4645,-82.1044,7.0,1111122 
SCCF RECON,ioos:station:SCCF:56:1,2017-01-04T21:00:00Z,26.4645,-82.1044,6.41,1111122 
SCCF RECON,ioos:station:SCCF:56:1,2017-01-04T22:00:00Z,26.4645,-82.1044,9.03,1111122 
SCCF RECON,ioos:station:SCCF:56:1,2017-01-04T23:00:00Z,26.4645,-82.1044,8.49,1111122 
SCCF RECON,ioos:station:SCCF:56:1,2017-01-05T00:00:00Z,26.4645,-82.1044,6.49,1111122 
SCCF RECON,ioos:station:SCCF:56:1,2017-01-05T01:00:00Z,26.4645,-82.1044,7.39,1111122 
SCCF RECON,ioos:station:SCCF:56:1,2017-01-05T02:00:00Z,26.4645,-82.1044,9.03,1111122 
SCCF RECON,ioos:station:SCCF:56:1,2017-01-05T03:00:00Z,26.4645,-82.1044,8.96,1111122 
SCCF RECON,ioos:station:SCCF:56:1,2017-01-05T04:00:00Z,26.4645,-82.1044,6.06,1111122 
SCCF RECON,ioos:station:SCCF:56:1,2017-01-05T05:00:00Z,26.4645,-82.1044,2.74,1111122 
SCCF RECON,ioos:station:SCCF:56:1,2017-01-05T06:00:00Z,26.4645,-82.1044,3.36,1111122 
SCCF RECON,ioos:station:SCCF:56:1,2017-01-05T07:00:00Z,26.4645,-82.1044,3.56,1111122 
SCCF RECON,ioos:station:SCCF:56:1,2017-01-05T08:00:00Z,26.4645,-82.1044,3.98,1111122 
SCCF RECON,ioos:station:SCCF:56:1,2017-01-05T09:00:00Z,26.4645,-82.1044,4.54,1111122 
SCCF RECON,ioos:station:SCCF:56:1,2017-01-05T10:00:00Z,26.4645,-82.1044,3.91,1111122 
SCCF RECON,ioos:station:SCCF:56:1,2017-01-05T11:00:00Z,26.4645,-82.1044,3.87,1111122 
SCCF RECON,ioos:station:SCCF:56:1,2017-01-05T12:00:00Z,26.4645,-82.1044,3.57,1111122 
SCCF RECON,ioos:station:SCCF:56:1,2017-01-05T13:00:00Z,26.4645,-82.1044,3.42,1111122 
SCCF RECON,ioos:station:SCCF:56:1,2017-01-05T14:00:00Z,26.4645,-82.1044,3.2,1111122 
SCCF RECON,ioos:station:SCCF:56:1,2017-01-05T15:00:00Z,26.4645,-82.1044,3.51,1111122 
SCCF RECON,ioos:station:SCCF:56:1,2017-01-05T16:00:00Z,26.4645,-82.1044,3.66,1111122 
SCCF RECON,ioos:station:SCCF:56:1,2017-01-05T17:00:00Z,26.4645,-82.1044,3.69,1111122 
SCCF RECON,ioos:station:SCCF:56:1,2017-01-05T18:00:00Z,26.4645,-82.1044,3.75,1111122 
SCCF RECON,ioos:station:SCCF:56:1,2017-01-05T19:00:00Z,26.4645,-82.1044,2.39,1111122 
SCCF RECON,ioos:station:SCCF:56:1,2017-01-05T20:00:00Z,26.4645,-82.1044,2.51,1111122 
SCCF RECON,ioos:station:SCCF:56:1,2017-01-05T21:00:00Z,26.4645,-82.1044,1.89,1111122 
SCCF RECON,ioos:station:SCCF:56:1,2017-01-05T22:00:00Z,26.4645,-82.1044,1.94,1111122 
SCCF RECON,ioos:station:SCCF:56:1,2017-01-05T23:00:00Z,26.4645,-82.1044,1.64,1111122 
SCCF RECON,ioos:station:SCCF:56:1,2017-01-06T00:00:00Z,26.4645,-82.1044,1.8,1111122 
SCCF RECON,ioos:station:SCCF:56:1,2017-01-06T01:00:00Z,26.4645,-82.1044,1.69,1111122 
SCCF RECON,ioos:station:SCCF:56:1,2017-01-06T02:00:00Z,26.4645,-82.1044,1.83,1111122 
SCCF RECON,ioos:station:SCCF:56:1,2017-01-06T03:00:00Z,26.4645,-82.1044,2.15,1111122 
SCCF RECON,ioos:station:SCCF:56:1,2017-01-06T04:00:00Z,26.4645,-82.1044,2.31,1111122 
SCCF RECON,ioos:station:SCCF:56:1,2017-01-06T05:00:00Z,26.4645,-82.1044,2.3,1111122 
SCCF RECON,ioos:station:SCCF:56:1,2017-01-06T06:00:00Z,26.4645,-82.1044,2.34,1111122 
SCCF RECON,ioos:station:SCCF:56:1,2017-01-06T07:00:00Z,26.4645,-82.1044,2.4,1111122 
SCCF RECON,ioos:station:SCCF:56:1,2017-01-06T08:00:00Z,26.4645,-82.1044,2.34,1111122 
SCCF RECON,ioos:station:SCCF:56:1,2017-01-06T09:00:00Z,26.4645,-82.1044,2.61,1111122 
SCCF RECON,ioos:station:SCCF:56:1,2017-01-06T10:00:00Z,26.4645,-82.1044,3.37,1111122 
SCCF RECON,ioos:station:SCCF:56:1,2017-01-06T11:00:00Z,26.4645,-82.1044,2.16,1111122 
SCCF RECON,ioos:station:SCCF:56:1,2017-01-06T12:00:00Z,26.4645,-82.1044,2.2,1111122 
SCCF RECON,ioos:station:SCCF:56:1,2017-01-06T13:00:00Z,26.4645,-82.1044,1.61,1111122 
SCCF RECON,ioos:station:SCCF:56:1,2017-01-06T14:00:00Z,26.4645,-82.1044,1.83,1111122 
SCCF RECON,ioos:station:SCCF:56:1,2017-01-06T15:00:00Z,26.4645,-82.1044,1.73,1111122 
SCCF RECON,ioos:station:SCCF:56:1,2017-01-06T16:00:00Z,26.4645,-82.1044,2.09,1111122 
SCCF RECON,ioos:station:SCCF:56:1,2017-01-06T17:00:00Z,26.4645,-82.1044,2.14,1111122 
SCCF RECON,ioos:station:SCCF:56:1,2017-01-06T18:00:00Z,26.4645,-82.1044,2.26,1111122 
SCCF RECON,ioos:station:SCCF:56:1,2017-01-06T19:00:00Z,26.4645,-82.1044,2.06,1111122 
SCCF RECON,ioos:station:SCCF:56:1,2017-01-06T20:00:00Z,26.4645,-82.1044,1.98,1111122 
SCCF RECON,ioos:station:SCCF:56:1,2017-01-06T21:00:00Z,26.4645,-82.1044,2.32,1111122 
SCCF RECON,ioos:station:SCCF:56:1,2017-01-06T22:00:00Z,26.4645,-82.1044,1.72,1111122 
SCCF RECON,ioos:station:SCCF:56:1,2017-01-06T23:00:00Z,26.4645,-82.1044,1.65,1111122 
SCCF RECON,ioos:station:SCCF:56:1,2017-01-07T00:00:00Z,26.4645,-82.1044,1.79,1111122 
SCCF RECON,ioos:station:SCCF:56:1,2017-01-07T01:00:00Z,26.4645,-82.1044,1.46,1111122 
SCCF RECON,ioos:station:SCCF:56:1,2017-01-07T02:00:00Z,26.4645,-82.1044,1.59,1111122 
SCCF RECON,ioos:station:SCCF:56:1,2017-01-07T03:00:00Z,26.4645,-82.1044,1.62,1111122 
SCCF RECON,ioos:station:SCCF:56:1,2017-01-07T04:00:00Z,26.4645,-82.1044,1.98,1111122 
SCCF RECON,ioos:station:SCCF:56:1,2017-01-07T05:00:00Z,26.4645,-82.1044,2.08,1111122 
SCCF RECON,ioos:station:SCCF:56:1,2017-01-07T06:00:00Z,26.4645,-82.1044,2.05,1111122 
SCCF RECON,ioos:station:SCCF:56:1,2017-01-07T07:00:00Z,26.4645,-82.1044,2.11,1111122 
SCCF RECON,ioos:station:SCCF:56:1,2017-01-07T08:00:00Z,26.4645,-82.1044,2.16,1111122 
SCCF RECON,ioos:station:SCCF:56:1,2017-01-07T09:00:00Z,26.4645,-82.1044,2.05,1111122 
SCCF RECON,ioos:station:SCCF:56:1,2017-01-07T10:00:00Z,26.4645,-82.1044,2.17,1111122 
SCCF RECON,ioos:station:SCCF:56:1,2017-01-07T11:00:00Z,26.4645,-82.1044,2.12,1111122 
SCCF RECON,ioos:station:SCCF:56:1,2017-01-07T12:00:00Z,26.4645,-82.1044,1.67,1111122 
SCCF RECON,ioos:station:SCCF:56:1,2017-01-07T13:00:00Z,26.4645,-82.1044,1.62,1111122 
SCCF RECON,ioos:station:SCCF:56:1,2017-01-07T14:00:00Z,26.4645,-82.1044,1.81,1111122 
SCCF RECON,ioos:station:SCCF:56:1,2017-01-07T15:00:00Z,26.4645,-82.1044,1.57,1111122 
SCCF RECON,ioos:station:SCCF:56:1,2017-01-07T16:00:00Z,26.4645,-82.1044,1.71,1111122 
SCCF RECON,ioos:station:SCCF:56:1,2017-01-07T17:00:00Z,26.4645,-82.1044,1.63,1111122 
SCCF RECON,ioos:station:SCCF:56:1,2017-01-07T18:00:00Z,26.4645,-82.1044,1.78,1111122 
SCCF RECON,ioos:station:SCCF:56:1,2017-01-07T19:00:00Z,26.4645,-82.1044,1.83,1111122 
SCCF RECON,ioos:station:SCCF:56:1,2017-01-07T20:00:00Z,26.4645,-82.1044,1.91,1111122 
SCCF RECON,ioos:station:SCCF:56:1,2017-01-07T21:00:00Z,26.4645,-82.1044,2.17,1111122 
SCCF RECON,ioos:station:SCCF:56:1,2017-01-07T22:00:00Z,26.4645,-82.1044,2.16,1111122 
SCCF RECON,ioos:station:SCCF:56:1,2017-01-07T23:00:00Z,26.4645,-82.1044,2.17,1111122 
SCCF RECON,ioos:station:SCCF:56:1,2017-01-08T00:00:00Z,26.4645,-82.1044,2.99,1111122 
SCCF RECON,ioos:station:SCCF:56:1,2017-01-08T01:00:00Z,26.4645,-82.1044,3.1,1111122 
SCCF RECON,ioos:station:SCCF:56:1,2017-01-08T02:00:00Z,26.4645,-82.1044,2.24,1111122 
SCCF RECON,ioos:station:SCCF:56:1,2017-01-08T03:00:00Z,26.4645,-82.1044,2.89,1111122 
SCCF RECON,ioos:station:SCCF:56:1,2017-01-08T04:00:00Z,26.4645,-82.1044,2.61,1111122 
SCCF RECON,ioos:station:SCCF:56:1,2017-01-08T05:00:00Z,26.4645,-82.1044,3.05,1111122 
SCCF RECON,ioos:station:SCCF:56:1,2017-01-08T06:00:00Z,26.4645,-82.1044,3.3,1111122 
SCCF RECON,ioos:station:SCCF:56:1,2017-01-08T07:00:00Z,26.4645,-82.1044,4.56,1111122 
SCCF RECON,ioos:station:SCCF:56:1,2017-01-08T08:00:00Z,26.4645,-82.1044,5.43,1111122 
SCCF RECON,ioos:station:SCCF:56:1,2017-01-08T09:00:00Z,26.4645,-82.1044,5.64,1111122 
SCCF RECON,ioos:station:SCCF:56:1,2017-01-08T10:00:00Z,26.4645,-82.1044,5.84,1111122 
SCCF RECON,ioos:station:SCCF:56:1,2017-01-08T11:00:00Z,26.4645,-82.1044,8.24,1111122 
SCCF RECON,ioos:station:SCCF:56:1,2017-01-08T12:00:00Z,26.4645,-82.1044,5.32,1111122 
SCCF RECON,ioos:station:SCCF:56:1,2017-01-08T13:00:00Z,26.4645,-82.1044,12.38,1111122 
SCCF RECON,ioos:station:SCCF:56:1,2017-01-08T14:00:00Z,26.4645,-82.1044,12.65,1111122 
SCCF RECON,ioos:station:SCCF:56:1,2017-01-08T15:00:00Z,26.4645,-82.1044,14.03,1111122 
SCCF RECON,ioos:station:SCCF:56:1,2017-01-08T16:00:00Z,26.4645,-82.1044,11.36,1111122 
SCCF RECON,ioos:station:SCCF:56:1,2017-01-08T17:00:00Z,26.4645,-82.1044,10.01,1111122 
SCCF RECON,ioos:station:SCCF:56:1,2017-01-08T18:00:00Z,26.4645,-82.1044,8.37,1111122 
SCCF RECON,ioos:station:SCCF:56:1,2017-01-08T19:00:00Z,26.4645,-82.1044,7.79,1111122 
SCCF RECON,ioos:station:SCCF:56:1,2017-01-08T20:00:00Z,26.4645,-82.1044,7.01,1111122 
SCCF RECON,ioos:station:SCCF:56:1,2017-01-08T21:00:00Z,26.4645,-82.1044,6.46,1111122 
SCCF RECON,ioos:station:SCCF:56:1,2017-01-08T22:00:00Z,26.4645,-82.1044,10.5,1111122 
SCCF RECON,ioos:station:SCCF:56:1,2017-01-08T23:00:00Z,26.4645,-82.1044,7.58,1111122 
SCCF RECON,ioos:station:SCCF:56:1,2017-01-09T00:00:00Z,26.4645,-82.1044,9.4,1111122 
SCCF RECON,ioos:station:SCCF:56:1,2017-01-09T01:00:00Z,26.4645,-82.1044,12.0,1111122 
SCCF RECON,ioos:station:SCCF:56:1,2017-01-09T02:00:00Z,26.4645,-82.1044,11.8,1111122 
SCCF RECON,ioos:station:SCCF:56:1,2017-01-09T03:00:00Z,26.4645,-82.1044,11.04,1111122 
SCCF RECON,ioos:station:SCCF:56:1,2017-01-09T04:00:00Z,26.4645,-82.1044,11.0,1111122 
SCCF RECON,ioos:station:SCCF:56:1,2017-01-09T05:00:00Z,26.4645,-82.1044,8.94,1111122 
SCCF RECON,ioos:station:SCCF:56:1,2017-01-09T06:00:00Z,26.4645,-82.1044,7.74,1111122 
SCCF RECON,ioos:station:SCCF:56:1,2017-01-09T07:00:00Z,26.4645,-82.1044,7.27,1111122 
SCCF RECON,ioos:station:SCCF:56:1,2017-01-09T08:00:00Z,26.4645,-82.1044,7.15,1111122 
SCCF RECON,ioos:station:SCCF:56:1,2017-01-09T09:00:00Z,26.4645,-82.1044,6.81,1111122 
SCCF RECON,ioos:station:SCCF:56:1,2017-01-09T10:00:00Z,26.4645,-82.1044,6.92,1111122 
SCCF RECON,ioos:station:SCCF:56:1,2017-01-09T11:00:00Z,26.4645,-82.1044,6.78,1111122 
SCCF RECON,ioos:station:SCCF:56:1,2017-01-09T12:00:00Z,26.4645,-82.1044,6.62,1111122 
SCCF RECON,ioos:station:SCCF:56:1,2017-01-09T13:00:00Z,26.4645,-82.1044,19.1,1111122 
SCCF RECON,ioos:station:SCCF:56:1,2017-01-09T14:00:00Z,26.4645,-82.1044,19.8,1111122 
SCCF RECON,ioos:station:SCCF:56:1,2017-01-09T15:00:00Z,26.4645,-82.1044,15.27,1111122 
SCCF RECON,ioos:station:SCCF:56:1,2017-01-09T16:00:00Z,26.4645,-82.1044,12.54,1111122 
SCCF RECON,ioos:station:SCCF:56:1,2017-01-09T17:00:00Z,26.4645,-82.1044,18.11,1111122 
SCCF RECON,ioos:station:SCCF:56:1,2017-01-09T18:00:00Z,26.4645,-82.1044,10.67,1111122 
SCCF RECON,ioos:station:SCCF:56:1,2017-01-09T19:00:00Z,26.4645,-82.1044,8.33,1111122 
SCCF RECON,ioos:station:SCCF:56:1,2017-01-09T20:00:00Z,26.4645,-82.1044,7.65,1111122 
SCCF RECON,ioos:station:SCCF:56:1,2017-01-09T21:00:00Z,26.4645,-82.1044,7.07,1111122 
SCCF RECON,ioos:station:SCCF:56:1,2017-01-09T22:00:00Z,26.4645,-82.1044,7.28,1111122 
SCCF RECON,ioos:station:SCCF:56:1,2017-01-09T23:00:00Z,26.4645,-82.1044,5.72,1111122 
SCCF RECON,ioos:station:SCCF:56:1,2017-01-10T00:00:00Z,26.4645,-82.1044,6.0,1111122 
SCCF RECON,ioos:station:SCCF:56:1,2017-01-10T01:00:00Z,26.4645,-82.1044,5.46,1111122 
SCCF RECON,ioos:station:SCCF:56:1,2017-01-10T02:00:00Z,26.4645,-82.1044,4.9,1111122 
SCCF RECON,ioos:station:SCCF:56:1,2017-01-10T03:00:00Z,26.4645,-82.1044,5.35,1111122 
SCCF RECON,ioos:station:SCCF:56:1,2017-01-10T04:00:00Z,26.4645,-82.1044,5.52,1111122 
SCCF RECON,ioos:station:SCCF:56:1,2017-01-10T05:00:00Z,26.4645,-82.1044,4.81,1111122 
SCCF RECON,ioos:station:SCCF:56:1,2017-01-10T06:00:00Z,26.4645,-82.1044,6.12,1111122 
SCCF RECON,ioos:station:SCCF:56:1,2017-01-10T07:00:00Z,26.4645,-82.1044,6.46,1111122 
SCCF RECON,ioos:station:SCCF:56:1,2017-01-10T08:00:00Z,26.4645,-82.1044,6.01,1111122 
SCCF RECON,ioos:station:SCCF:56:1,2017-01-10T09:00:00Z,26.4645,-82.1044,6.56,1111122 
SCCF RECON,ioos:station:SCCF:56:1,2017-01-10T10:00:00Z,26.4645,-82.1044,5.9,1111122 
SCCF RECON,ioos:station:SCCF:56:1,2017-01-10T11:00:00Z,26.4645,-82.1044,4.92,1111122 
SCCF RECON,ioos:station:SCCF:56:1,2017-01-10T12:00:00Z,26.4645,-82.1044,4.48,1111122 
SCCF RECON,ioos:station:SCCF:56:1,2017-01-10T13:00:00Z,26.4645,-82.1044,7.34,1111122 
SCCF RECON,ioos:station:SCCF:56:1,2017-01-10T14:00:00Z,26.4645,-82.1044,4.43,1111122 
SCCF RECON,ioos:station:SCCF:56:1,2017-01-10T15:00:00Z,26.4645,-82.1044,4.73,1111122 
SCCF RECON,ioos:station:SCCF:56:1,2017-01-10T16:00:00Z,26.4645,-82.1044,4.7,1111122 
SCCF RECON,ioos:station:SCCF:56:1,2017-01-10T17:00:00Z,26.4645,-82.1044,4.43,1111122 
SCCF RECON,ioos:station:SCCF:56:1,2017-01-10T18:00:00Z,26.4645,-82.1044,3.8,1111122 
SCCF RECON,ioos:station:SCCF:56:1,2017-01-10T19:00:00Z,26.4645,-82.1044,3.88,1111122 
SCCF RECON,ioos:station:SCCF:56:1,2017-01-10T20:00:00Z,26.4645,-82.1044,4.04,1111122 
SCCF RECON,ioos:station:SCCF:56:1,2017-01-10T21:00:00Z,26.4645,-82.1044,3.5,1111122 
SCCF RECON,ioos:station:SCCF:56:1,2017-01-10T22:00:00Z,26.4645,-82.1044,3.67,1111122 
SCCF RECON,ioos:station:SCCF:56:1,2017-01-10T23:00:00Z,26.4645,-82.1044,2.89,1111122 
SCCF RECON,ioos:station:SCCF:56:1,2017-01-11T00:00:00Z,26.4645,-82.1044,2.96,1111122 
SCCF RECON,ioos:station:SCCF:56:1,2017-01-11T01:00:00Z,26.4645,-82.1044,3.03,1111122 
SCCF RECON,ioos:station:SCCF:56:1,2017-01-11T02:00:00Z,26.4645,-82.1044,3.1,1111122 
SCCF RECON,ioos:station:SCCF:56:1,2017-01-11T03:00:00Z,26.4645,-82.1044,3.17,1111122 
SCCF RECON,ioos:station:SCCF:56:1,2017-01-11T04:00:00Z,26.4645,-82.1044,3.68,1111122 
SCCF RECON,ioos:station:SCCF:56:1,2017-01-11T05:00:00Z,26.4645,-82.1044,2.73,1111122 
SCCF RECON,ioos:station:SCCF:56:1,2017-01-11T06:00:00Z,26.4645,-82.1044,2.63,1111122 
SCCF RECON,ioos:station:SCCF:56:1,2017-01-11T07:00:00Z,26.4645,-82.1044,4.45,1111122 
SCCF RECON,ioos:station:SCCF:56:1,2017-01-11T08:00:00Z,26.4645,-82.1044,4.72,1111122 
SCCF RECON,ioos:station:SCCF:56:1,2017-01-11T09:00:00Z,26.4645,-82.1044,3.94,1111122 
SCCF RECON,ioos:station:SCCF:56:1,2017-01-11T10:00:00Z,26.4645,-82.1044,3.77,1111122 
SCCF RECON,ioos:station:SCCF:56:1,2017-01-11T11:00:00Z,26.4645,-82.1044,3.75,1111122 
SCCF RECON,ioos:station:SCCF:56:1,2017-01-11T12:00:00Z,26.4645,-82.1044,3.79,1111122 
SCCF RECON,ioos:station:SCCF:56:1,2017-01-11T13:00:00Z,26.4645,-82.1044,3.51,1111122 
SCCF RECON,ioos:station:SCCF:56:1,2017-01-11T14:00:00Z,26.4645,-82.1044,3.71,1111122 
SCCF RECON,ioos:station:SCCF:56:1,2017-01-11T15:00:00Z,26.4645,-82.1044,2.91,1111122 
SCCF RECON,ioos:station:SCCF:56:1,2017-01-11T16:00:00Z,26.4645,-82.1044,2.63,1111122 
SCCF RECON,ioos:station:SCCF:56:1,2017-01-11T17:00:00Z,26.4645,-82.1044,2.51,1111122 
SCCF RECON,ioos:station:SCCF:56:1,2017-01-11T18:00:00Z,26.4645,-82.1044,2.68,1111122 
SCCF RECON,ioos:station:SCCF:56:1,2017-01-11T19:00:00Z,26.4645,-82.1044,2.59,1111122 
SCCF RECON,ioos:station:SCCF:56:1,2017-01-11T20:00:00Z,26.4645,-82.1044,2.26,1111122 
SCCF RECON,ioos:station:SCCF:56:1,2017-01-11T21:00:00Z,26.4645,-82.1044,2.48,1111122 
SCCF RECON,ioos:station:SCCF:56:1,2017-01-11T22:00:00Z,26.4645,-82.1044,2.78,1111122 
SCCF RECON,ioos:station:SCCF:56:1,2017-01-11T23:00:00Z,26.4645,-82.1044,2.15,1111122 
SCCF RECON,ioos:station:SCCF:56:1,2017-01-12T00:00:00Z,26.4645,-82.1044,2.55,1111122 
SCCF RECON,ioos:station:SCCF:56:1,2017-01-12T01:00:00Z,26.4645,-82.1044,2.61,1111122 
SCCF RECON,ioos:station:SCCF:56:1,2017-01-12T02:00:00Z,26.4645,-82.1044,3.28,1111122 
SCCF RECON,ioos:station:SCCF:56:1,2017-01-12T03:00:00Z,26.4645,-82.1044,3.46,1111122 
SCCF RECON,ioos:station:SCCF:56:1,2017-01-12T04:00:00Z,26.4645,-82.1044,3.59,1111122 
SCCF RECON,ioos:station:SCCF:56:1,2017-01-12T05:00:00Z,26.4645,-82.1044,14.09,1111122 
SCCF RECON,ioos:station:SCCF:56:1,2017-01-12T06:00:00Z,26.4645,-82.1044,2.62,1111122 
SCCF RECON,ioos:station:SCCF:56:1,2017-01-12T07:00:00Z,26.4645,-82.1044,2.7,1111122 
SCCF RECON,ioos:station:SCCF:56:1,2017-01-12T08:00:00Z,26.4645,-82.1044,3.32,1111122 
SCCF RECON,ioos:station:SCCF:56:1,2017-01-12T09:00:00Z,26.4645,-82.1044,3.24,1111122 
SCCF RECON,ioos:station:SCCF:56:1,2017-01-12T10:00:00Z,26.4645,-82.1044,2.84,1111122 
SCCF RECON,ioos:station:SCCF:56:1,2017-01-12T11:00:00Z,26.4645,-82.1044,2.87,1111122 
SCCF RECON,ioos:station:SCCF:56:1,2017-01-12T12:00:00Z,26.4645,-82.1044,2.94,1111122 